OPS 4682 DEB, 38363

Orbit data source: Space-Track

OPS 4682 DEB, 38363 is space debris in LEO originally from a launch on Sat, 03 Apr 1965 UTC launched from the Air Force Western Test Range (AFWTR). Debris objects in space refer to the collection of defunct objects orbiting the Earth. Examples of debris include non-operational satellites, rocket bodies, and fragments generated from explosions, collisions, or faulty payload assembly.

Loading next visibility...
Identifier
38363, 1965-027BQ
Orbit
LEO
Country
Flag of USUS
Related business
Manufacturer
Unknown
Mission
Spacecraft
Bus & Motor
Unknown
Mass
Unknown
Launch date (UTC)
1965-04-03 (61 years ago)
Launch vehicle
Unknown
Launch site
Air Force Western Test Range (AFWTR)
Object type
Payload
Rocket body
Debris
Shape & HBR
Unknown shape, 0.1 m
Radar Cross Section
Small (<0.1 m²)

Expand to show TLE details & history
Last TLE update: 1 day ago

TLE from 1 day ago
0 OPS 4682 DEB
1 38363U 65027BQ  26035.36502735  .00001118  00000-0  36218-2 0  9993
2 38363  90.2418   6.6179 0028331 194.3097 165.7227 13.01209144534881
Epoch: 2026-02-04T08:45Z
TLE epoch observation values (Epoch: 2026-02-04T08:45:38.363Z)
Latitude
0.00006°
Longitude
100.6754°
Altitude
1,281.21 km
Speed
7.205 km/s
True Right ascension
00h 26m 28s
True Declination
0° 00' 00"
Sunlit
Object was in daylight at epoch
Visualization orbit readout
Latitude
Unknown
Longitude
Unknown
Altitude
Unknown
Speed
Unknown
Apparent Right ascension
Unknown
Apparent Declination
Unknown
Sunlit
N/A
Visualization observer readout
Local Sidereal Time
12:03:30
Azimuth
Unknown
Elevation
Unknown
Doppler factor
Unknown
Orbital elements
Apogee altitude
1,276.102 km
Perigee altitude
1,232.854 km
Semi-major axis
7,632.615 km
Eccentricity
0.00283
Inclination
90.2418°
RAAN
6.6179°
Arg. of periapsis
194.3097°
True anomaly
165.80249°
Mean anomaly
165.7227°
Eccentric anomaly
165.76262°
Mean motion
3.25487 °/min
Orbital period
110.6 mins
BSTAR
0.0036218
Loading maneuver chart data...
Computing Atmospheric mass density...
Loading historical data...
Loading historical data...
Loading historical data...
Loading historical data...
Loading historical data...
Loading historical data...
Loading historical data...

Documentation

Showing up to 5 results
|